Dobrodošli na spletni strani vremenske postaje Senovo. Vse informacije so informativnega značaja, saj vremenska postaja ni del državne mreže meteoroloških postaj. AKTUALNIH OBVESTIL NI.


Posebna pozornost v zvezi z vremenskimi dogajanji ni potrebna.    Posebna pozornost v zvezi z vremenskimi dogajanji ni potrebna.

Pogled proti Armezu več informacij Pogled proti Armezu


Lisca več informacij Lisca


Radar strel več informacij blitzortung!


Radar padavin več informacij rain snow radar


Obiščite še:

Template documentation
and downloads

And another site



Weather Underground, zgodovina - Tekstovno

Dnevni povzetek za December 24, 2017 Enote:  Angleško    Metrično   Obe
« Predhodni Dan
Naslednji Dan »
Dnevni Tedenski Mesečni Letni Po meri
  Višja: Nižja: Povprečje:
Temperatura: TemperatureC °F -3.4 °F 0.2 °F
Točka rosišča: DewpointC °F -4.2 °F -1.3 °F
Vlažnost: Humidity % 0 % 84 %
Hitrost vetra: WindSpeedKMH mph 0.0 mph 0.5 mph
Sunki vetra: WindSpeedGustKMH mph - -
Veter:- - SW
Zračni tlak: PressurehPa in 0.0 in -
Padavine: 0.0 in    
Historical Graphs
 
 
Tabelarni podarki za December 24, 2017
Čas Temperatura Točka rosišča Zračni tlak Veter Hitrost vetra Sunki vetra Vlažnost Intenziteta padavin (urna)
TemperatureC °F DewpointC °F PressurehPa in Calm     Humidity % HourlyPrecipMM in
00:00 -1.7 °F -3.0 °F 1026.0 in NNW 1.6 mph 2.1 mph 91 % 0.0 in
00:05 -1.8 °F -3.1 °F 1026.0 in North 0.3 mph   91 % 0.0 in
00:07 -1.8 °F -3.1 °F 1026.0 in North 0.3 mph   91 % 0.0 in
00:08 -1.8 °F -3.1 °F 1026.0 in North 0.3 mph   91 % 0.0 in
00:13 -1.8 °F -3.1 °F 1026.0 in Calm     91 % 0.0 in
00:14 -1.8 °F -3.1 °F 1026.0 in Calm     91 % 0.0 in
00:19 -1.8 °F -3.1 °F 1026.0 in Calm     91 % 0.0 in
00:24 -1.9 °F -3.2 °F 1026.0 in Calm     91 % 0.0 in
00:29 -1.9 °F -3.2 °F 1024.9 in Calm     91 % 0.0 in
00:32 -1.9 °F -3.2 °F 1024.9 in West 0.8 mph 2.1 mph 91 % 0.0 in
00:37 -1.9 °F -3.2 °F 1024.9 in NW 1.0 mph 3.2 mph 91 % 0.0 in
00:39 -1.9 °F -3.2 °F 1024.9 in NW 1.1 mph 3.2 mph 91 % 0.0 in
00:44 -2.0 °F -3.1 °F 1024.9 in NNW 1.0 mph 2.6 mph 92 % 0.0 in
00:45 -2.0 °F -3.1 °F 1024.9 in NNW 1.0 mph 2.6 mph 92 % 0.0 in
00:50 -2.0 °F -3.1 °F 1024.9 in North 0.3 mph   92 % 0.0 in
00:54 -2.0 °F -3.1 °F 1024.9 in NNW 0.5 mph 3.5 mph 92 % 0.0 in
00:59 -2.1 °F -3.2 °F 1024.9 in NNW 0.5 mph 3.5 mph 92 % 0.0 in
01:04 -2.1 °F -3.2 °F 1024.9 in NNW 0.5 mph 3.5 mph 92 % 0.0 in
01:08 -2.1 °F -3.2 °F 1024.9 in North 0.2 mph 4.7 mph 92 % 0.0 in
01:13 -2.2 °F -3.3 °F 1024.9 in NNW 0.6 mph 4.7 mph 92 % 0.0 in
01:18 -2.2 °F -3.3 °F 1024.9 in NW 0.5 mph 3.2 mph 92 % 0.0 in
01:19 -2.2 °F -3.3 °F 1024.9 in NW 0.3 mph 3.2 mph 92 % 0.0 in
01:24 -2.2 °F -3.3 °F 1024.9 in Calm     92 % 0.0 in
01:27 -2.2 °F -3.3 °F 1024.9 in Calm   4.0 mph 92 % 0.0 in
01:29 -2.2 °F -3.3 °F 1024.9 in NNE 0.2 mph 4.0 mph 92 % 0.0 in
01:32 0.0 °F -3.3 °F 0.0 in Calm     0 % 0.0 in
01:37 -2.3 °F -3.4 °F 0.0 in Calm     92 % 0.0 in
01:42 -2.3 °F -3.4 °F 0.0 in Calm     92 % 0.0 in
01:44 -2.3 °F -3.4 °F 1023.9 in Calm     92 % 0.0 in
01:47 -2.3 °F -3.4 °F 1023.9 in Calm     92 % 0.0 in
01:52 -2.3 °F -3.4 °F 1023.9 in WSW 1.3 mph 5.0 mph 92 % 0.0 in
01:54 -2.3 °F -3.4 °F 1023.9 in WSW 1.4 mph 5.0 mph 92 % 0.0 in
01:59 -2.3 °F -3.4 °F 1023.9 in West 1.6 mph 5.0 mph 92 % 0.0 in
02:00 -2.3 °F -3.4 °F 1023.9 in WNW 1.4 mph 5.0 mph 92 % 0.0 in
02:05 -2.3 °F -3.4 °F 1023.9 in NW 0.3 mph 2.6 mph 92 % 0.0 in
02:07 -2.4 °F -3.5 °F 1023.9 in NW 0.3 mph 2.6 mph 92 % 0.0 in
02:10 -2.4 °F -3.5 °F 1023.9 in Calm     92 % 0.0 in
02:15 -2.4 °F -3.5 °F 1023.9 in Calm     92 % 0.0 in
02:16 -2.4 °F -3.5 °F 1023.9 in Calm     92 % 0.0 in
02:17 -2.4 °F -3.5 °F 1023.9 in Calm     92 % 0.0 in
02:22 -2.4 °F -3.5 °F 1023.9 in Calm     92 % 0.0 in
02:28 -2.4 °F -3.5 °F 1023.9 in Calm     92 % 0.0 in
02:33 -2.5 °F -3.5 °F 1024.9 in Calm     93 % 0.0 in
02:38 -2.4 °F -3.4 °F 1024.9 in Calm     93 % 0.0 in
02:43 -2.4 °F -3.4 °F 1024.9 in Calm     93 % 0.0 in
02:44 -2.5 °F -3.5 °F 1024.9 in Calm     93 % 0.0 in
02:45 -2.5 °F -3.5 °F 1024.9 in Calm     93 % 0.0 in
02:50 -2.5 °F -3.5 °F 1024.9 in Calm     93 % 0.0 in
02:54 -2.5 °F -3.5 °F 1024.9 in Calm     93 % 0.0 in
02:59 -2.4 °F -3.4 °F 1023.9 in Calm     93 % 0.0 in
03:01 -2.4 °F -3.4 °F 1023.9 in Calm     93 % 0.0 in
03:04 -2.4 °F -3.4 °F 1023.9 in Calm     93 % 0.0 in
03:09 -2.4 °F -3.4 °F 1023.9 in Calm     93 % 0.0 in
03:10 -2.4 °F -3.4 °F 1023.9 in Calm     93 % 0.0 in
03:14 -2.4 °F -3.4 °F 1023.9 in Calm     93 % 0.0 in
03:20 -2.4 °F -3.4 °F 1023.9 in Calm     93 % 0.0 in
03:25 -2.4 °F -3.4 °F 1023.9 in Calm     93 % 0.0 in
03:26 -2.4 °F -3.4 °F 1023.9 in Calm     93 % 0.0 in
03:31 -2.4 °F -3.4 °F 1024.9 in Calm     93 % 0.0 in
03:32 -2.4 °F -3.4 °F 1024.9 in Calm     93 % 0.0 in
03:36 -2.4 °F -3.4 °F 1024.9 in Calm     93 % 0.0 in
03:40 -2.4 °F -3.4 °F 1024.9 in Calm     93 % 0.0 in
03:42 -2.4 °F -3.4 °F 1024.9 in Calm     93 % 0.0 in
03:47 -2.4 °F -3.4 °F 1026.0 in Calm     93 % 0.0 in
03:48 -2.4 °F -3.4 °F 1026.0 in Calm     93 % 0.0 in
03:53 -2.5 °F -3.5 °F 1026.0 in Calm     93 % 0.0 in
03:55 -2.5 °F -3.5 °F 1026.0 in Calm     93 % 0.0 in
04:00 -2.5 °F -3.5 °F 1024.9 in Calm     93 % 0.0 in
04:05 -2.5 °F -3.5 °F 1024.9 in Calm     93 % 0.0 in
04:10 -2.6 °F -3.6 °F 1024.9 in Calm     93 % 0.0 in
04:12 -2.6 °F -3.6 °F 1024.9 in Calm     93 % 0.0 in
04:16 -2.6 °F -3.6 °F 1024.9 in Calm     93 % 0.0 in
04:17 -2.6 °F -3.6 °F 1024.9 in Calm     93 % 0.0 in
04:22 -2.7 °F -3.7 °F 1024.9 in Calm     93 % 0.0 in
04:23 -2.7 °F -3.7 °F 1024.9 in Calm     93 % 0.0 in
04:26 -2.7 °F -3.7 °F 1024.9 in Calm     93 % 0.0 in
04:29 -2.7 °F -3.7 °F 1024.9 in Calm     93 % 0.0 in
04:34 -2.7 °F -3.7 °F 1024.9 in Calm     93 % 0.0 in
04:35 -2.7 °F -3.7 °F 1024.9 in Calm     93 % 0.0 in
04:40 -2.7 °F -3.7 °F 1024.9 in Calm     93 % 0.0 in
04:41 -2.8 °F -3.8 °F 1024.9 in Calm     93 % 0.0 in
04:47 -2.8 °F -3.8 °F 1024.9 in Calm     93 % 0.0 in
04:50 -2.8 °F -3.8 °F 1024.9 in Calm     93 % 0.0 in
04:55 -2.8 °F -3.8 °F 1024.9 in Calm     93 % 0.0 in
05:00 -2.9 °F -3.9 °F 1024.9 in Calm     93 % 0.0 in
05:01 -2.9 °F -3.9 °F 1024.9 in Calm     93 % 0.0 in
05:06 -2.9 °F -3.9 °F 1024.9 in Calm     93 % 0.0 in
05:07 -2.9 °F -3.9 °F 1024.9 in Calm     93 % 0.0 in
05:10 -3.0 °F -3.8 °F 1024.9 in Calm     94 % 0.0 in
05:15 -3.0 °F -3.8 °F 1024.9 in Calm   3.2 mph 94 % 0.0 in
05:16 -3.0 °F -3.8 °F 1024.9 in East 0.2 mph 3.2 mph 94 % 0.0 in
05:19 -3.0 °F -3.8 °F 1024.9 in NNE 0.3 mph 3.2 mph 94 % 0.0 in
05:22 -3.0 °F -3.8 °F 1024.9 in NNE 0.5 mph 3.2 mph 94 % 0.0 in
05:27 -3.0 °F -3.8 °F 1024.9 in WNW 0.3 mph 3.2 mph 94 % 0.0 in
05:28 -3.0 °F -3.8 °F 1024.9 in WNW 0.3 mph 3.2 mph 94 % 0.0 in
05:33 -3.0 °F -3.8 °F 1024.9 in WNW 0.2 mph 3.2 mph 94 % 0.0 in
05:37 -3.0 °F -3.8 °F 1024.9 in WNW 0.2 mph 2.6 mph 94 % 0.0 in
05:39 -3.1 °F -3.9 °F 1024.9 in Calm     94 % 0.0 in
05:43 -3.1 °F -3.9 °F 1024.9 in Calm     94 % 0.0 in
05:44 -3.1 °F -3.9 °F 1024.9 in Calm     94 % 0.0 in
05:48 -3.1 °F -3.9 °F 1024.9 in Calm     94 % 0.0 in
05:49 -3.1 °F -3.9 °F 1024.9 in Calm     94 % 0.0 in
05:54 -3.2 °F -4.1 °F 1024.9 in Calm     94 % 0.0 in
05:59 -3.2 °F -4.1 °F 1024.9 in Calm     94 % 0.0 in
06:04 -3.3 °F -4.1 °F 1024.9 in Calm     94 % 0.0 in
06:05 -3.3 °F -4.1 °F 1024.9 in Calm     94 % 0.0 in
06:09 -3.3 °F -4.1 °F 1024.9 in Calm     94 % 0.0 in
06:12 -3.3 °F -4.1 °F 1024.9 in Calm     94 % 0.0 in
06:14 -3.3 °F -4.1 °F 1024.9 in Calm     94 % 0.0 in
06:19 -3.3 °F -4.1 °F 1024.9 in Calm     94 % 0.0 in
06:20 -3.3 °F -4.1 °F 1024.9 in Calm     94 % 0.0 in
06:21 -3.3 °F -4.1 °F 1024.9 in Calm     94 % 0.0 in
06:26 -3.3 °F -4.1 °F 1024.9 in Calm     94 % 0.0 in
06:28 -3.3 °F -4.1 °F 1024.9 in Calm     94 % 0.0 in
06:32 -3.3 °F -4.1 °F 1024.9 in Calm     94 % 0.0 in
06:33 -3.3 °F -4.1 °F 1024.9 in Calm     94 % 0.0 in
06:38 -3.4 °F -4.2 °F 1024.9 in Calm     94 % 0.0 in
06:39 -3.4 °F -4.2 °F 1024.9 in Calm     94 % 0.0 in
06:41 -3.4 °F -4.2 °F 1024.9 in Calm     94 % 0.0 in
06:46 -3.4 °F -4.2 °F 1024.9 in Calm     94 % 0.0 in
06:51 -3.4 °F -4.2 °F 1024.9 in Calm     94 % 0.0 in
06:56 -3.4 °F -4.2 °F 1024.9 in Calm     94 % 0.0 in
07:01 -3.4 °F -4.2 °F 1024.9 in Calm     94 % 0.0 in
07:03 -3.4 °F -4.2 °F 1024.9 in Calm     94 % 0.0 in
07:08 -3.4 °F -4.2 °F 1024.9 in Calm     94 % 0.0 in
07:11 -3.4 °F -4.2 °F 1024.9 in Calm     94 % 0.0 in
07:15 -3.4 °F -4.2 °F 1024.9 in Calm     94 % 0.0 in
07:17 -3.4 °F -4.2 °F 1024.9 in Calm     94 % 0.0 in
07:22 -3.4 °F -4.2 °F 1024.9 in Calm     94 % 0.0 in
07:23 -3.4 °F -4.2 °F 1024.9 in Calm     94 % 0.0 in
07:26 -3.4 °F -4.2 °F 1024.9 in Calm     94 % 0.0 in
07:30 -3.4 °F -4.2 °F 1024.9 in Calm     94 % 0.0 in
07:35 -3.4 °F -4.2 °F 1024.9 in Calm     94 % 0.0 in
07:37 -3.4 °F -4.2 °F 1024.9 in Calm     94 % 0.0 in
07:42 -3.4 °F -4.2 °F 1024.9 in West 2.6 mph 4.7 mph 94 % 0.0 in
07:43 -3.4 °F -4.2 °F 1024.9 in West 2.6 mph 4.7 mph 94 % 0.0 in
07:48 -3.4 °F -4.2 °F 1024.9 in West 2.6 mph 4.7 mph 94 % 0.0 in
07:51 -3.4 °F -4.2 °F 1024.9 in West 2.3 mph 4.7 mph 94 % 0.0 in
07:56 -3.4 °F -4.2 °F 1024.9 in Calm     94 % 0.0 in
07:57 -3.4 °F -4.2 °F 1024.9 in Calm     94 % 0.0 in
08:02 -3.4 °F -4.2 °F 1024.9 in Calm     94 % 0.0 in
08:03 -3.4 °F -4.2 °F 1024.9 in Calm     94 % 0.0 in
08:07 -3.4 °F -4.2 °F 1024.9 in Calm     94 % 0.0 in
08:08 -3.4 °F -4.2 °F 1024.9 in Calm     94 % 0.0 in
08:12 -3.4 °F -4.2 °F 1024.9 in Calm     94 % 0.0 in
08:15 -3.4 °F -4.2 °F 1024.9 in Calm     94 % 0.0 in
08:18 -3.4 °F -4.2 °F 1024.9 in Calm     94 % 0.0 in
08:23 -3.4 °F -4.2 °F 1024.9 in Calm     94 % 0.0 in
08:24 -3.4 °F -4.2 °F 1024.9 in Calm     94 % 0.0 in
08:30 0.0 °F -4.2 °F 0.0 in Calm     0 % 0.0 in
08:35 0.0 °F -4.2 °F 1024.9 in North 0.2 mph   0 % 0.0 in
08:36 -3.0 °F -3.8 °F 1024.9 in North 0.2 mph   94 % 0.0 in
08:41 -3.0 °F -3.8 °F 1024.9 in Calm     94 % 0.0 in
08:43 -2.9 °F -3.7 °F 1024.9 in Calm     94 % 0.0 in
08:48 -2.8 °F -3.6 °F 1024.9 in Calm     94 % 0.0 in
08:52 -2.7 °F -3.6 °F 1024.9 in Calm     94 % 0.0 in
08:54 -2.7 °F -3.6 °F 1024.9 in Calm     94 % 0.0 in
08:59 -2.6 °F -3.4 °F 1024.9 in Calm     94 % 0.0 in
09:00 -2.4 °F -3.1 °F 1024.9 in Calm     95 % 0.0 in
09:05 -2.3 °F -3.0 °F 1024.9 in Calm     95 % 0.0 in
09:06 -2.3 °F -3.0 °F 1024.9 in Calm   2.6 mph 95 % 0.0 in
09:11 -2.2 °F -2.9 °F 1024.9 in SW 0.5 mph 4.3 mph 95 % 0.0 in
09:16 -1.9 °F -2.6 °F 1024.9 in SW 0.5 mph 4.3 mph 95 % 0.0 in
09:18 -1.9 °F -2.6 °F 1024.9 in SW 0.2 mph 1.8 mph 95 % 0.0 in
09:21 -1.8 °F -2.5 °F 1024.9 in Calm     95 % 0.0 in
09:25 -1.6 °F -2.3 °F 1024.9 in Calm     95 % 0.0 in
09:30 -1.5 °F -2.2 °F 1023.9 in Calm     95 % 0.0 in
09:31 -1.4 °F -2.1 °F 1023.9 in Calm     95 % 0.0 in
09:35 -1.2 °F -1.9 °F 1023.9 in Calm     95 % 0.0 in
09:39 -1.1 °F -1.8 °F 1023.9 in SSW 0.3 mph 3.2 mph 95 % 0.0 in
09:44 -0.9 °F -1.6 °F 1026.0 in SSW 0.3 mph 3.2 mph 95 % 0.0 in
09:45 -0.9 °F -1.6 °F 1026.0 in SSW 0.3 mph 3.2 mph 95 % 0.0 in
09:54 -0.9 °F -1.6 °F 1023.9 in South 0.6 mph 2.1 mph 95 % 0.0 in
09:59 -0.2 °F -0.8 °F 1023.9 in SSW 0.3 mph 2.1 mph 96 % 0.0 in
10:00 -0.1 °F -0.7 °F 1023.9 in SSW 0.2 mph 2.1 mph 96 % 0.0 in
10:02 -0.1 °F -0.7 °F 1023.9 in SSW 0.2 mph 2.1 mph 96 % 0.0 in
10:07 0.2 °F -0.4 °F 1023.9 in South 0.2 mph 1.8 mph 96 % 0.0 in
10:12 0.4 °F -0.2 °F 1023.9 in South 0.2 mph 3.5 mph 96 % 0.0 in
10:13 0.4 °F -0.2 °F 1023.9 in SSE 0.2 mph 3.5 mph 96 % 0.0 in
10:18 0.7 °F 0.1 °F 1024.9 in SE 1.9 mph 7.6 mph 96 % 0.0 in
10:19 0.7 °F 0.1 °F 1024.9 in SE 2.3 mph 7.6 mph 96 % 0.0 in
10:21 0.7 °F 0.1 °F 1024.9 in SE 2.9 mph 7.6 mph 96 % 0.0 in
10:26 1.0 °F 0.4 °F 1024.9 in ESE 3.5 mph 7.6 mph 96 % 0.0 in
10:30 1.0 °F 0.4 °F 1024.9 in ESE 1.8 mph 5.8 mph 96 % 0.0 in
10:32 1.0 °F 0.4 °F 1024.9 in ESE 1.8 mph 4.3 mph 96 % 0.0 in
10:37 1.0 °F 0.4 °F 1024.9 in ESE 1.4 mph 5.8 mph 96 % 0.0 in
10:38 1.0 °F 0.4 °F 1024.9 in SE 1.4 mph 5.8 mph 96 % 0.0 in
10:43 1.0 °F 0.4 °F 1024.9 in SSW 1.8 mph 4.3 mph 96 % 0.0 in
10:48 1.0 °F 0.4 °F 1026.0 in SSW 2.9 mph 4.3 mph 96 % 0.0 in
10:49 1.0 °F 0.4 °F 1026.0 in SSW 2.7 mph 4.3 mph 96 % 0.0 in
10:54 1.0 °F 0.4 °F 1026.0 in SW 1.3 mph 4.0 mph 96 % 0.0 in
10:56 1.0 °F 0.4 °F 1026.0 in SW 1.1 mph 3.2 mph 96 % 0.0 in
11:01 1.0 °F 0.4 °F 1024.9 in SW 0.3 mph 2.6 mph 96 % 0.0 in
11:06 0.0 °F 0.4 °F 1024.9 in SE 3.2 mph 4.3 mph 0 % 0.0 in
11:08 0.0 °F 0.4 °F 1024.9 in SE 3.5 mph 5.0 mph 0 % 0.0 in
11:13 0.0 °F 0.4 °F 1024.9 in SSE 3.5 mph 5.0 mph 0 % 0.0 in
11:14 0.0 °F 0.4 °F 1024.9 in South 3.5 mph 5.0 mph 0 % 0.0 in
11:19 3.5 °F 3.1 °F 1024.9 in SSW 3.4 mph 4.3 mph 97 % 0.0 in
11:21 3.6 °F 3.2 °F 1024.9 in SSW 3.4 mph 4.3 mph 97 % 0.0 in
11:26 4.1 °F 3.7 °F 1024.9 in South 2.6 mph 3.2 mph 97 % 0.0 in
11:31 4.5 °F 4.1 °F 1023.9 in SSW 1.9 mph 3.2 mph 97 % 0.0 in
11:32 4.5 °F 4.1 °F 1023.9 in SSW 1.9 mph 3.2 mph 97 % 0.0 in
11:37 5.2 °F 4.8 °F 1023.9 in SSW 3.2 mph 6.1 mph 97 % 0.0 in
11:42 5.6 °F 5.2 °F 1023.9 in SW 3.7 mph 6.1 mph 97 % 0.0 in
11:46 6.0 °F 5.4 °F 1023.9 in WSW 2.4 mph 5.0 mph 96 % 0.0 in
11:48 6.1 °F 5.5 °F 1023.9 in WSW 1.3 mph 5.0 mph 96 % 0.0 in
11:52 6.4 °F 5.9 °F 1023.9 in North 0.2 mph   97 % 0.0 in
11:54 6.6 °F 6.2 °F 1023.9 in Calm     97 % 0.0 in
11:57 6.8 °F 6.3 °F 1023.9 in Calm     97 % 0.0 in
11:59 7.0 °F 6.4 °F 1023.9 in Calm     96 % 0.0 in
12:02 7.1 °F 6.5 °F 1023.9 in Calm     96 % 0.0 in
12:06 7.3 °F 6.7 °F 1023.9 in Calm     96 % 0.0 in
12:11 7.5 °F 6.9 °F 1023.9 in South 0.5 mph 2.6 mph 96 % 0.0 in
12:13 7.5 °F 6.9 °F 1023.9 in South 0.5 mph 2.6 mph 96 % 0.0 in
12:17 7.8 °F 7.2 °F 1023.9 in South 0.5 mph 2.6 mph 96 % 0.0 in
12:18 7.8 °F 7.2 °F 1023.9 in South 0.2 mph 1.8 mph 96 % 0.0 in
12:23 8.1 °F 7.3 °F 1023.9 in South 1.8 mph 4.0 mph 95 % 0.0 in
12:24 8.1 °F 7.3 °F 1023.9 in South 2.1 mph 4.0 mph 95 % 0.0 in
12:29 8.3 °F 7.6 °F 1022.9 in SSE 1.3 mph 4.0 mph 95 % 0.0 in
12:34 8.5 °F 7.7 °F 1022.9 in SE 0.6 mph 3.5 mph 95 % 0.0 in
12:39 8.7 °F 7.9 °F 1022.9 in WSW 0.6 mph 3.2 mph 95 % 0.0 in
12:44 8.8 °F 7.9 °F 1023.9 in SW 0.6 mph 3.2 mph 94 % 0.0 in
12:49 0.0 °F 8.0 °F 1023.9 in WSW 0.2 mph 3.2 mph 0 % 0.0 in
12:50 8.8 °F 7.9 °F 1023.9 in WSW 0.2 mph 3.2 mph 94 % 0.0 in
12:55 8.8 °F 7.9 °F 1023.9 in Calm   3.5 mph 94 % 0.0 in
12:57 0.0 °F 7.9 °F 1023.9 in Calm     0 % 0.0 in
13:02 8.5 °F 7.3 °F 1022.9 in WSW 1.3 mph 3.2 mph 92 % 0.0 in
13:03 8.5 °F 7.3 °F 1022.9 in WSW 1.3 mph 3.2 mph 92 % 0.0 in
13:08 8.5 °F 7.3 °F 1022.9 in SW 1.6 mph 4.3 mph 92 % 0.0 in
13:09 8.5 °F 7.3 °F 1022.9 in SW 1.9 mph 4.7 mph 92 % 0.0 in
13:14 8.5 °F 7.1 °F 1021.9 in SW 2.3 mph 4.7 mph 91 % 0.0 in
13:19 8.5 °F 7.1 °F 1021.9 in SW 1.4 mph 4.7 mph 91 % 0.0 in
13:21 8.5 °F 7.1 °F 1021.9 in SSW 0.8 mph 2.6 mph 91 % 0.0 in
13:22 8.5 °F 7.1 °F 1021.9 in SSW 0.6 mph 2.6 mph 91 % 0.0 in
13:27 8.3 °F 6.6 °F 1021.9 in SSW 0.2 mph 2.6 mph 89 % 0.0 in
13:29 8.3 °F 6.6 °F 1022.9 in SSW 0.5 mph 2.6 mph 89 % 0.0 in
13:31 8.3 °F 6.4 °F 1022.9 in SW 0.6 mph 4.0 mph 88 % 0.0 in
13:34 8.3 °F 6.4 °F 1022.9 in SW 1.1 mph 4.0 mph 88 % 0.0 in
13:40 0.0 °F 6.4 °F 0.0 in Calm     0 % 0.0 in
13:45 0.0 °F 6.4 °F 1022.9 in SSE 0.5 mph 4.0 mph 0 % 0.0 in
13:48 0.0 °F 6.4 °F 1022.9 in SSE 0.3 mph 4.0 mph 0 % 0.0 in
13:53 0.0 °F 6.4 °F 1022.9 in Calm     0 % 0.0 in
13:54 0.0 °F 6.4 °F 1022.9 in Calm     0 % 0.0 in
13:59 0.0 °F 6.4 °F 1023.9 in Calm   2.6 mph 0 % 0.0 in
14:00 0.0 °F 6.4 °F 1023.9 in SSW 0.5 mph 2.6 mph 0 % 0.0 in
14:05 8.2 °F 5.8 °F 1023.9 in WSW 3.1 mph 4.3 mph 85 % 0.0 in
14:06 8.2 °F 5.8 °F 1023.9 in WSW 3.2 mph 4.3 mph 85 % 0.0 in
14:11 8.2 °F 5.8 °F 1023.9 in WSW 3.7 mph 4.7 mph 85 % 0.0 in
14:18 0.0 °F 8.8 °F 0.0 in Calm     0 % 0.0 in
14:20 0.0 °F 8.8 °F 0.0 in WSW 1.0 mph 1.8 mph 0 % 0.0 in
14:25 10.3 °F 5.4 °F 1021.9 in WSW 2.6 mph 2.6 mph 72 % 0.0 in
14:27 10.1 °F 5.1 °F 1021.9 in WSW 1.8 mph 2.1 mph 71 % 0.0 in
14:32 9.3 °F 3.9 °F 1022.9 in North 0.2 mph   69 % 0.0 in
14:33 9.1 °F 3.7 °F 1022.9 in Calm     69 % 0.0 in
14:38 8.8 °F 3.2 °F 1022.9 in WNW 0.2 mph 3.5 mph 68 % 0.0 in
14:39 8.8 °F 3.2 °F 1022.9 in WNW 0.2 mph 3.5 mph 68 % 0.0 in
14:44 8.5 °F 2.9 °F 1022.9 in WNW 0.6 mph 3.5 mph 68 % 0.0 in
14:45 8.5 °F 2.9 °F 1023.9 in WNW 0.6 mph 3.5 mph 68 % 0.0 in
14:46 8.1 °F 2.3 °F 1023.9 in West 0.8 mph 3.5 mph 67 % 0.0 in
14:51 7.8 °F 2.3 °F 1023.9 in NW 1.0 mph 4.0 mph 68 % 0.0 in
14:52 7.8 °F 2.3 °F 1023.9 in NW 0.8 mph 4.0 mph 68 % 0.0 in
14:54 7.6 °F 2.1 °F 1023.9 in NW 0.8 mph 4.0 mph 68 % 0.0 in
14:59 6.9 °F 1.4 °F 1023.9 in NNW 1.4 mph 4.3 mph 68 % 0.0 in
15:00 6.9 °F 1.4 °F 1023.9 in NNW 1.3 mph 4.3 mph 68 % 0.0 in
15:05 6.4 °F 0.9 °F 1023.9 in NW 1.9 mph 4.3 mph 68 % 0.0 in
15:08 6.3 °F 1.0 °F 1023.9 in NW 1.0 mph 4.3 mph 69 % 0.0 in
15:10 6.3 °F 1.0 °F 1023.9 in NW 1.0 mph 4.3 mph 69 % 0.0 in
15:14 5.9 °F 0.7 °F 1022.9 in North 0.8 mph   69 % 0.0 in
15:16 5.8 °F 0.6 °F 1022.9 in North 0.6 mph   69 % 0.0 in
15:21 5.4 °F 0.4 °F 1022.9 in North 1.8 mph   70 % 0.0 in
15:25 5.3 °F 0.3 °F 1022.9 in NW 2.1 mph 5.0 mph 70 % 0.0 in
15:26 5.3 °F 0.3 °F 1022.9 in NW 2.3 mph 5.0 mph 70 % 0.0 in
15:31 4.9 °F 0.1 °F 1022.9 in NW 3.1 mph 5.0 mph 71 % 0.0 in
15:33 4.8 °F 0.0 °F 1022.9 in NNW 3.7 mph 5.0 mph 71 % 0.0 in
15:39 4.6 °F 0.0 °F 1022.9 in NNW 4.0 mph 4.0 mph 72 % 0.0 in
15:42 4.6 °F 0.0 °F 1022.9 in NNW 3.4 mph 3.4 mph 72 % 0.0 in
15:43 4.6 °F 0.0 °F 1022.9 in NNW 3.4 mph 3.4 mph 72 % 0.0 in
15:48 4.3 °F -0.3 °F 1022.9 in NNW 1.9 mph 1.9 mph 72 % 0.0 in
15:53 4.1 °F -0.3 °F 1022.9 in Calm     73 % 0.0 in
15:57 3.9 °F -0.5 °F 1022.9 in Calm     73 % 0.0 in
16:00 3.9 °F -0.5 °F 1022.9 in Calm     73 % 0.0 in
16:05 3.7 °F -0.5 °F 1022.9 in Calm     74 % 0.0 in
16:07 3.7 °F -0.5 °F 1022.9 in WNW 0.5 mph 2.6 mph 74 % 0.0 in
16:12 3.7 °F -0.5 °F 1022.9 in WNW 1.0 mph 2.6 mph 74 % 0.0 in
16:17 3.5 °F -0.5 °F 1022.9 in WNW 1.3 mph 2.6 mph 75 % 0.0 in
16:18 3.5 °F -0.5 °F 1022.9 in WNW 1.3 mph 2.6 mph 75 % 0.0 in
16:22 3.5 °F -0.5 °F 1022.9 in NW 1.1 mph 2.6 mph 75 % 0.0 in
16:26 3.2 °F -0.8 °F 1022.9 in NW 2.1 mph 2.6 mph 75 % 0.0 in
16:31 3.2 °F -0.8 °F 1022.9 in NW 2.1 mph 2.6 mph 75 % 0.0 in
16:36 2.9 °F -0.9 °F 1022.9 in NW 2.1 mph 2.6 mph 76 % 0.0 in
16:40 2.7 °F -1.1 °F 1022.9 in NW 0.6 mph 2.6 mph 76 % 0.0 in
16:41 2.7 °F -1.1 °F 1022.9 in NW 0.6 mph 2.6 mph 76 % 0.0 in
16:46 2.6 °F -1.1 °F 1022.9 in Calm     77 % 0.0 in
16:47 2.6 °F -1.1 °F 1022.9 in Calm     77 % 0.0 in
16:49 2.6 °F -1.1 °F 1022.9 in Calm     77 % 0.0 in
16:55 2.3 °F -1.3 °F 1022.9 in Calm     77 % 0.0 in
17:00 2.2 °F -1.4 °F 1022.9 in Calm     77 % 0.0 in
17:04 2.1 °F -1.5 °F 1022.9 in Calm     77 % 0.0 in
17:07 2.0 °F -1.4 °F 1022.9 in Calm     78 % 0.0 in
17:12 1.9 °F -1.6 °F 1022.9 in Calm     78 % 0.0 in
17:13 1.9 °F -1.6 °F 1022.9 in Calm     78 % 0.0 in
17:18 1.7 °F -1.7 °F 1023.9 in Calm     78 % 0.0 in
17:19 1.7 °F -1.7 °F 1023.9 in Calm     78 % 0.0 in
17:24 1.5 °F -1.9 °F 1023.9 in Calm     78 % 0.0 in
17:25 1.5 °F -1.9 °F 1023.9 in Calm     78 % 0.0 in
17:30 1.4 °F -1.8 °F 1022.9 in Calm     79 % 0.0 in
17:31 1.4 °F -1.8 °F 1022.9 in Calm     79 % 0.0 in
17:33 1.3 °F -1.9 °F 1022.9 in Calm     79 % 0.0 in
17:38 1.3 °F -1.9 °F 1022.9 in Calm     79 % 0.0 in
17:42 1.1 °F -2.1 °F 1022.9 in Calm     79 % 0.0 in
17:47 1.1 °F -2.1 °F 1021.9 in Calm     79 % 0.0 in
17:52 0.9 °F -2.2 °F 1021.9 in Calm     80 % 0.0 in
17:57 0.9 °F -2.2 °F 1021.9 in Calm     80 % 0.0 in
17:58 0.9 °F -2.2 °F 1021.9 in Calm     80 % 0.0 in
18:03 0.8 °F -2.3 °F 1022.9 in Calm     80 % 0.0 in
18:06 0.7 °F -2.3 °F 1022.9 in Calm     80 % 0.0 in
18:08 0.7 °F -2.3 °F 1022.9 in Calm     80 % 0.0 in
18:11 0.6 °F -2.3 °F 1022.9 in Calm     81 % 0.0 in
18:16 0.6 °F -2.3 °F 1022.9 in Calm     81 % 0.0 in
18:18 0.6 °F -2.3 °F 1022.9 in Calm     81 % 0.0 in
18:22 0.5 °F -2.4 °F 1022.9 in Calm     81 % 0.0 in
18:24 0.4 °F -2.5 °F 1022.9 in Calm     81 % 0.0 in
18:29 0.4 °F -2.5 °F 1022.9 in Calm     81 % 0.0 in
18:30 0.4 °F -2.5 °F 1022.9 in Calm     81 % 0.0 in
18:31 0.3 °F -2.4 °F 1022.9 in Calm     82 % 0.0 in
18:36 0.3 °F -2.4 °F 1022.9 in Calm     82 % 0.0 in
18:38 0.2 °F -2.5 °F 1022.9 in Calm     82 % 0.0 in
18:41 0.2 °F -2.5 °F 1022.9 in Calm     82 % 0.0 in
18:44 0.2 °F -2.5 °F 1022.9 in Calm     82 % 0.0 in
18:47 0.1 °F -2.6 °F 1022.9 in Calm     82 % 0.0 in
18:50 0.1 °F -2.6 °F 1022.9 in Calm     82 % 0.0 in
18:55 0.0 °F -2.7 °F 1022.9 in Calm     82 % 0.0 in
18:58 -0.1 °F -2.7 °F 1022.9 in Calm     83 % 0.0 in
19:03 -0.2 °F -2.7 °F 1021.9 in Calm     83 % 0.0 in
19:08 -0.3 °F -2.8 °F 1021.9 in Calm     83 % 0.0 in
19:13 -0.4 °F -2.9 °F 1021.9 in Calm     83 % 0.0 in
19:14 -0.4 °F -2.9 °F 1022.9 in Calm     83 % 0.0 in
19:18 -0.5 °F -3.1 °F 1022.9 in Calm     83 % 0.0 in
19:20 -0.5 °F -3.1 °F 1022.9 in Calm     83 % 0.0 in
19:25 -0.5 °F -3.1 °F 1022.9 in Calm     83 % 0.0 in
19:29 -0.6 °F -2.9 °F 1021.9 in Calm     84 % 0.0 in
19:34 -0.7 °F -3.1 °F 1021.9 in Calm     84 % 0.0 in
19:35 -0.7 °F -3.1 °F 1021.9 in Calm     84 % 0.0 in
19:40 -0.7 °F -3.1 °F 1021.9 in Calm     84 % 0.0 in
19:45 -0.8 °F -3.2 °F 1021.9 in Calm     84 % 0.0 in
19:46 -0.8 °F -3.2 °F 1021.9 in Calm     84 % 0.0 in
19:51 -0.8 °F -3.2 °F 1021.9 in Calm     84 % 0.0 in
19:56 -0.9 °F -3.3 °F 1021.9 in Calm     84 % 0.0 in
19:59 -1.0 °F -3.2 °F 1021.9 in Calm     85 % 0.0 in
20:04 -1.0 °F -3.2 °F 1021.9 in Calm     85 % 0.0 in
20:05 -1.0 °F -3.2 °F 1021.9 in Calm     85 % 0.0 in
20:08 -1.1 °F -3.3 °F 1021.9 in Calm     85 % 0.0 in
20:10 -1.1 °F -3.3 °F 1021.9 in Calm     85 % 0.0 in
20:15 -1.1 °F -3.3 °F 1022.9 in Calm     85 % 0.0 in
20:19 0.0 °F -3.3 °F 0.0 in Calm     0 % 0.0 in
20:24 -1.2 °F -3.2 °F 1022.9 in Calm     86 % 0.0 in
20:29 -1.3 °F -3.3 °F 1022.9 in Calm     86 % 0.0 in
20:31 -1.3 °F -3.3 °F 1022.9 in Calm     86 % 0.0 in
20:36 -1.4 °F -3.4 °F 1022.9 in Calm     86 % 0.0 in
20:37 -1.4 °F -3.4 °F 1022.9 in Calm     86 % 0.0 in
20:40 -1.4 °F -3.4 °F 1022.9 in Calm     86 % 0.0 in
20:43 0.0 °F -3.4 °F 1022.9 in Calm     0 % 0.0 in
20:48 -1.4 °F -3.4 °F 1022.9 in Calm     86 % 0.0 in
20:53 -1.4 °F -3.4 °F 1022.9 in Calm     86 % 0.0 in
20:54 -1.4 °F -3.4 °F 1022.9 in Calm     86 % 0.0 in
20:56 -1.5 °F -3.6 °F 1022.9 in Calm     86 % 0.0 in
20:59 -1.5 °F -3.6 °F 1022.9 in Calm     86 % 0.0 in
21:03 -1.6 °F -3.6 °F 1022.9 in Calm     86 % 0.0 in
21:07 -1.6 °F -3.5 °F 1022.9 in Calm     87 % 0.0 in
21:12 -1.5 °F -3.4 °F 1022.9 in Calm     87 % 0.0 in
21:14 -1.5 °F -3.4 °F 1022.9 in WSW 0.2 mph 3.5 mph 87 % 0.0 in
21:19 -1.6 °F -3.5 °F 1022.9 in North 0.5 mph 3.5 mph 87 % 0.0 in
21:24 -1.7 °F -3.6 °F 1022.9 in North 0.6 mph 3.2 mph 87 % 0.0 in
21:25 -1.7 °F -3.6 °F 1022.9 in North 0.6 mph 3.2 mph 87 % 0.0 in
21:30 -1.7 °F -3.6 °F 1022.9 in Calm     87 % 0.0 in
21:35 -1.7 °F -3.6 °F 1022.9 in Calm     87 % 0.0 in
21:36 -1.7 °F -3.6 °F 1022.9 in Calm     87 % 0.0 in
21:37 -1.7 °F -3.6 °F 1022.9 in Calm     87 % 0.0 in
21:42 -1.8 °F -3.7 °F 1022.9 in Calm     87 % 0.0 in
21:45 -1.8 °F -3.7 °F 1022.9 in Calm     87 % 0.0 in
21:50 -1.9 °F -3.8 °F 1022.9 in Calm     87 % 0.0 in
21:52 -1.9 °F -3.8 °F 1022.9 in Calm     87 % 0.0 in
21:54 -1.9 °F -3.8 °F 1022.9 in Calm     87 % 0.0 in
21:59 -1.9 °F -3.6 °F 1022.9 in Calm   2.1 mph 88 % 0.0 in
22:01 -1.9 °F -3.6 °F 1022.9 in Calm   2.1 mph 88 % 0.0 in
22:03 -1.9 °F -3.6 °F 1022.9 in Calm   2.1 mph 88 % 0.0 in
22:07 -2.0 °F -3.7 °F 1022.9 in Calm     88 % 0.0 in
22:09 -2.0 °F -3.7 °F 1022.9 in Calm     88 % 0.0 in
22:14 -2.0 °F -3.7 °F 1022.9 in Calm     88 % 0.0 in
22:18 -2.0 °F -3.7 °F 1022.9 in Calm     88 % 0.0 in
22:22 -2.1 °F -3.8 °F 1022.9 in Calm     88 % 0.0 in
22:27 -2.1 °F -3.8 °F 1022.9 in Calm   2.6 mph 88 % 0.0 in
22:32 -2.1 °F -3.8 °F 1021.9 in Calm     88 % 0.0 in
Vremenska postaja Senovo
Podatki zbrani iz Weather Underground - 3.5 mb

Script developed by  Jim McMurry - jmcmurry@mwt.net Adapted for the template by  Wim van der Kuil - Leuven-Template.eu

Vremenski podatki so objavljeni na:

European Weather Network

WeatherCloud

Weather Underground

AWEKAS

HAMweather, WeatherForYou, PWS Weather

MapView

Geostik

Slovenia weather network

Oprema, ki se uporablja:

Vremenski program
Cumulus

Vremenski server
Asus

Cumulus

Asus